COSMOS 2251 DEB, 36367

Orbit data source: Space-Track

COSMOS 2251 DEB, 36367 is space debris in LEO originally from a launch on Wed, 16 Jun 1993 UTC launched from the Plesetsk Missile And Space Complex (PKMTR). The debris from Iridium 33, an American commercial communications satellite, has been tracked extensively since its accidental collision with the defunct Russian satellite Cosmos 2251 in 2009. This event, occurring at high speed in low Earth orbit (LEO), generated thousands of pieces of space debris, significantly increasing the risk of further collisions. The Iridium 33 debris cloud has impacted space traffic management and orbital debris mitigation strategies, making it a subject of ongoing study in space situational awareness.

Loading next visibility...
Identifier
36367, 1993-036AYU
Orbit
LEO
Country
Flag of CISCIS
Related business
Manufacturer
Unknown
Mission
Spacecraft
Bus & Motor
Unknown
Mass
Unknown
Launch date (UTC)
1993-06-16 (33 years ago)
Launch vehicle
Unknown
Launch site
Plesetsk Missile And Space Complex (PKMTR)
Object type
Payload
Rocket body
Debris
Shape & HBR
Unknown shape, 0.1 m
Radar Cross Section
Small (<0.1 m²)

Expand to show TLE details & history
Last TLE update: 3 days ago

TLE from 3 days ago
0 COSMOS 2251 DEB
1 36367U 93036AYU 26031.05784802  .00002405  00000-0  15973-2 0  9990
2 36367  74.1026 148.2168 0260957 209.9013 148.6992 13.86620773582131
Epoch: 2026-01-31T01:23Z
TLE epoch observation values (Epoch: 2026-01-31T01:23:18.068Z)
Latitude
-0.00005°
Longitude
-2.8958°
Altitude
1,107.566 km
Speed
7.216 km/s
True Right ascension
09h 52m 52s
True Declination
0° 00' 00"
Sunlit
Object was in full shadow at epoch
Visualization orbit readout
Latitude
Unknown
Longitude
Unknown
Altitude
Unknown
Speed
Unknown
Apparent Right ascension
Unknown
Apparent Declination
Unknown
Sunlit
N/A
Visualization observer readout
Local Sidereal Time
05:46:30
Azimuth
Unknown
Elevation
Unknown
Doppler factor
Unknown
Orbital elements
Apogee altitude
1,129.092 km
Perigee altitude
747.244 km
Semi-major axis
7,316.305 km
Eccentricity
0.0261
Inclination
74.1026°
RAAN
148.2168°
Arg. of periapsis
209.9013°
True anomaly
150.21043°
Mean anomaly
148.6992°
Eccentric anomaly
149.45898°
Mean motion
3.46821 °/min
Orbital period
103.8 mins
BSTAR
0.0015973
Loading maneuver chart data...
Computing Atmospheric mass density...

Documentation

Showing up to 5 results
|